When you browse on this site, cookies collect data to enhance your experience and personalize the content and advertising you see.
Visit our Privacy Policy to learn more. By continuing to use the site, you agree to this use of cookies and data.

Tiempo cada hora Murcia

Hoy, 20 Septiembre, Domingo

Tiempo Temperatura Precipitaciones Viento Presión Humedad
00:00 +25°C° 0 mm 2 mps 759 mmHg 55%
01:00 +25°C° 0 mm 2 mps 759 mmHg 57%
02:00 +24°C° 0 mm 1 mps 758 mmHg 59%
03:00 +24°C° 0 mm 1 mps 758 mmHg 61%
04:00 +23°C° 0 mm 1 mps 758 mmHg 62%
05:00 +23°C° 0 mm 1 mps 758 mmHg 63%
06:00 +23°C° 0 mm 1 mps 759 mmHg 64%
07:00 +24°C° 0 mm 1 mps 759 mmHg 58%
08:00 +26°C° 0 mm 1 mps 759 mmHg 51%
09:00 +28°C° 0 mm 1 mps 759 mmHg 45%
10:00 +29°C° 0 mm 2 mps 759 mmHg 42%
11:00 +30°C° 0 mm 2 mps 759 mmHg 38%
12:00 +31°C° 0 mm 2 mps 758 mmHg 35%
13:00 +31°C° 0 mm 3 mps 758 mmHg 34%
14:00 +33°C° 0 mm 3 mps 758 mmHg 34%
15:00 +33°C° 0 mm 4 mps 757 mmHg 33%
16:00 +32°C° 0 mm 4 mps 757 mmHg 39%
17:00 +29°C° 0 mm 4 mps 757 mmHg 45%
18:00 +28°C° 0 mm 4 mps 757 mmHg 51%
19:00 +27°C° 0 mm 3 mps 758 mmHg 53%
20:00 +27°C° 0 mm 2 mps 758 mmHg 54%
21:00 +26°C° 0 mm 1 mps 759 mmHg 56%
22:00 +26°C° 0 mm 1 mps 758 mmHg 55%
23:00 +26°C° 0 mm 1 mps 758 mmHg 54%

Mañana, 21 Septiembre, Lunes

Tiempo Temperatura Precipitaciones Viento Presión Humedad
00:00 +26°C° 0 mm 1 mps 758 mmHg 53%
01:00 +25°C° 0 mm 1 mps 758 mmHg 53%
02:00 +25°C° 0 mm 1 mps 758 mmHg 54%
03:00 +24°C° 0 mm 1 mps 758 mmHg 54%
04:00 +24°C° 0 mm 1 mps 758 mmHg 55%
05:00 +24°C° 0 mm 1 mps 758 mmHg 56%
06:00 +24°C° 0 mm 1 mps 758 mmHg 57%
07:00 +25°C° 0 mm 1 mps 758 mmHg 53%
08:00 +26°C° 0 mm 1 mps 758 mmHg 49%
09:00 +28°C° 0 mm 2 mps 758 mmHg 45%
10:00 +29°C° 0 mm 2 mps 758 mmHg 41%
11:00 +30°C° 0 mm 2 mps 758 mmHg 38%
12:00 +31°C° 0 mm 2 mps 758 mmHg 34%
13:00 +31°C° 0 mm 2 mps 758 mmHg 33%
14:00 +32°C° 0 mm 2 mps 757 mmHg 31%
15:00 +33°C° 0 mm 3 mps 757 mmHg 29%
16:00 +31°C° 0 mm 3 mps 757 mmHg 33%
17:00 +30°C° 0 mm 4 mps 757 mmHg 38%
18:00 +29°C° 0 mm 5 mps 757 mmHg 42%
19:00 +28°C° 0 mm 4 mps 757 mmHg 45%
20:00 +27°C° 0 mm 3 mps 757 mmHg 48%
21:00 +27°C° 0 mm 3 mps 757 mmHg 51%
22:00 +26°C° 0 mm 2 mps 757 mmHg 52%
23:00 +26°C° 0 mm 1 mps 757 mmHg 52%

Pasado mañana, 22 Septiembre, Martes

Tiempo Temperatura Precipitaciones Viento Presión Humedad
00:00 +25°C° 0 mm 1 mps 757 mmHg 52%
01:00 +25°C° 0 mm 1 mps 756 mmHg 52%
02:00 +25°C° 0 mm 1 mps 756 mmHg 52%
03:00 +24°C° 0 mm 1 mps 756 mmHg 52%
04:00 +24°C° 0 mm 1 mps 756 mmHg 50%
05:00 +24°C° 0 mm 1 mps 756 mmHg 49%
06:00 +24°C° 0 mm 1 mps 756 mmHg 48%
07:00 +25°C° 0 mm 1 mps 756 mmHg 42%
08:00 +27°C° 0 mm 1 mps 757 mmHg 37%
09:00 +29°C° 0 mm 1 mps 757 mmHg 31%
10:00 +30°C° 0 mm 1 mps 756 mmHg 30%
11:00 +31°C° 0 mm 1 mps 756 mmHg 28%
12:00 +33°C° 0 mm 1 mps 756 mmHg 26%
13:00 +34°C° 0 mm 2 mps 756 mmHg 27%
14:00 +34°C° 0 mm 3 mps 755 mmHg 28%
15:00 +34°C° 0 mm 4 mps 755 mmHg 29%
16:00 +33°C° 0 mm 4 mps 755 mmHg 34%
17:00 +30°C° 0 mm 4 mps 755 mmHg 40%
18:00 +29°C° 0 mm 3 mps 754 mmHg 46%
19:00 +28°C° 0 mm 3 mps 755 mmHg 49%
20:00 +27°C° 0 mm 2 mps 755 mmHg 53%
21:00 +26°C° 0 mm 1 mps 755 mmHg 56%
22:00 +26°C° 0 mm 1 mps 755 mmHg 58%
23:00 +25°C° 0 mm 1 mps 755 mmHg 59%

23 Septiembre, Miércoles

Tiempo Temperatura Precipitaciones Viento Presión Humedad
00:00 +25°C° 0 mm 1 mps 755 mmHg 60%
01:00 +25°C° 0 mm 1 mps 755 mmHg 60%
02:00 +23°C° 0 mm 0 mps 755 mmHg 60%
03:00 +22°C° 0 mm 0 mps 755 mmHg 59%
04:00 +24°C° 0 mm 1 mps 755 mmHg 57%
05:00 +24°C° 0 mm 1 mps 755 mmHg 55%
06:00 +24°C° 0 mm 1 mps 755 mmHg 52%
07:00 +26°C° 0 mm 1 mps 755 mmHg 46%
08:00 +28°C° 0 mm 1 mps 755 mmHg 39%
09:00 +30°C° 0 mm 1 mps 755 mmHg 32%
10:00 +31°C° 0 mm 2 mps 755 mmHg 30%
11:00 +32°C° 0 mm 2 mps 755 mmHg 28%
12:00 +34°C° 0 mm 3 mps 755 mmHg 25%
13:00 +34°C° 0 mm 4 mps 755 mmHg 27%
14:00 +34°C° 0 mm 5 mps 755 mmHg 28%
15:00 +34°C° 0 mm 6 mps 754 mmHg 29%
16:00 +33°C° 0 mm 5 mps 754 mmHg 34%
17:00 +32°C° 0 mm 4 mps 754 mmHg 39%
18:00 +29°C° 0 mm 3 mps 754 mmHg 43%
19:00 +29°C° 0 mm 2 mps 755 mmHg 44%
20:00 +29°C° 0 mm 2 mps 755 mmHg 45%
21:00 +28°C° 0 mm 1 mps 756 mmHg 46%
22:00 +28°C° 0 mm 1 mps 756 mmHg 45%
23:00 +28°C° 0 mm 1 mps 756 mmHg 44%

24 Septiembre, Jueves

Tiempo Temperatura Precipitaciones Viento Presión Humedad
00:00 +28°C° 0 mm 1 mps 756 mmHg 43%
01:00 +28°C° 0 mm 1 mps 755 mmHg 44%
02:00 +27°C° 0 mm 1 mps 755 mmHg 45%
03:00 +27°C° 0 mm 1 mps 754 mmHg 46%
04:00 +27°C° 0 mm 2 mps 755 mmHg 46%
05:00 +27°C° 0 mm 2 mps 755 mmHg 46%
06:00 +27°C° 0 mm 3 mps 756 mmHg 47%
07:00 +27°C° 0 mm 3 mps 756 mmHg 47%
08:00 +27°C° 0 mm 3 mps 756 mmHg 48%
09:00 +27°C° 0 mm 3 mps 757 mmHg 49%
10:00 +27°C° 0 mm 3 mps 757 mmHg 48%
11:00 +28°C° 0 mm 3 mps 757 mmHg 48%
12:00 +28°C° 0 mm 3 mps 757 mmHg 47%
13:00 +28°C° 0 mm 3 mps 757 mmHg 46%
14:00 +28°C° 0 mm 3 mps 756 mmHg 45%
15:00 +29°C° 0 mm 4 mps 756 mmHg 43%
16:00 +28°C° 0 mm 4 mps 756 mmHg 44%
17:00 +28°C° 0 mm 4 mps 756 mmHg 45%
18:00 +27°C° 0 mm 3 mps 756 mmHg 46%
19:00 +27°C° 0 mm 3 mps 756 mmHg 48%
20:00 +26°C° 0 mm 3 mps 757 mmHg 50%
21:00 +26°C° 0 mm 2 mps 757 mmHg 52%
22:00 +26°C° 0 mm 2 mps 757 mmHg 53%
23:00 +26°C° 0 mm 2 mps 757 mmHg 53%

25 Septiembre, Viernes

Tiempo Temperatura Precipitaciones Viento Presión Humedad
00:00 +25°C° 0 mm 2 mps 757 mmHg 53%
01:00 +25°C° 0 mm 2 mps 757 mmHg 55%
02:00 +24°C° 0 mm 1 mps 757 mmHg 56%
03:00 +24°C° 0 mm 1 mps 757 mmHg 57%
04:00 +23°C° 0 mm 1 mps 757 mmHg 58%
05:00 +23°C° 0 mm 1 mps 757 mmHg 59%
06:00 +22°C° 0 mm 1 mps 758 mmHg 60%
07:00 +24°C° 0 mm 1 mps 758 mmHg 53%
08:00 +27°C° 0 mm 2 mps 758 mmHg 45%
09:00 +29°C° 0 mm 2 mps 759 mmHg 37%
10:00 +30°C° 0 mm 2 mps 759 mmHg 34%
11:00 +31°C° 0 mm 2 mps 759 mmHg 31%
12:00 +33°C° 0 mm 3 mps 759 mmHg 28%
13:00 +33°C° 0 mm 3 mps 759 mmHg 30%
14:00 +33°C° 0 mm 4 mps 759 mmHg 32%
15:00 +33°C° 0 mm 4 mps 758 mmHg 35%
16:00 +30°C° 0 mm 4 mps 759 mmHg 46%
17:00 +28°C° 0 mm 4 mps 759 mmHg 57%
18:00 +25°C° 0 mm 4 mps 759 mmHg 68%
19:00 +25°C° 0 mm 3 mps 760 mmHg 71%
20:00 +24°C° 0 mm 3 mps 760 mmHg 74%
21:00 +24°C° 0 mm 3 mps 761 mmHg 77%
22:00 +23°C° 0 mm 2 mps 761 mmHg 77%
23:00 +23°C° 0 mm 2 mps 761 mmHg 77%
Mostrar más